Simultaneous Nadir Overpasses (SNOs) Predictions

Prediction of SNOs between AQUA and METOP-C Satellite Orbit:

Table of predicted SNOs for the next 14.0 days since TLE Epoch: 11/23/2019
Index Date (AQUA) Time (AQUA) Lat,Lon (AQUA) SZA (AQUA ) Date (METOP-C) Time (METOP-C) Lat,Lon (METOP-C) SZA (METOP-C ) Distance(km) Time Diff (sec)
1 11/25/2019 10:21:39 73.78, 18.86 94.43 11/25/2019 10:21:08 73.77, 18.82 94.43 1.64 31
2 11/25/2019 11:11:06 -73.85,-173.64 85.50 11/25/2019 11:11:48 -73.83,-173.72 85.52 3.25 42
3 11/28/2019 05:55:53 73.80, 85.26 94.98 11/28/2019 05:55:28 73.78, 85.25 94.97 1.95 25
4 11/28/2019 06:45:20 -73.87,-107.25 84.95 11/28/2019 06:46:07 -73.89,-107.17 84.93 3.19 47
5 12/01/2019 00:40:29 -73.22, -14.71 85.15 12/01/2019 00:39:22 -73.12, -17.17 85.20 79.95 67
6 12/01/2019 01:30:07 73.78, 151.76 95.43 12/01/2019 01:29:49 73.80, 151.68 95.46 3.21 18
7 12/01/2019 02:19:34 -73.85, -40.75 84.49 12/01/2019 02:20:29 -73.85, -40.86 84.49 3.25 55
8 12/03/2019 20:14:48 -73.47, 51.23 84.47 12/03/2019 20:13:38 -73.39, 49.81 84.53 45.77 70
9 12/03/2019 21:04:22 73.81,-141.87 95.89 12/03/2019 21:04:10 73.80,-141.89 95.89 0.61 12
10 12/03/2019 21:53:49 -73.88, 25.61 84.04 12/03/2019 21:54:50 -73.86, 25.58 84.06 2.43 61
11 12/06/2019 15:49:06 -73.72, 117.14 83.85 12/06/2019 15:47:53 -73.65, 116.82 83.91 12.73 73
12 12/06/2019 16:38:35 73.79, -75.40 96.24 12/06/2019 16:38:30 73.81, -75.46 96.26 2.90 5
13 12/06/2019 17:28:02 -73.87, 92.08 83.68 12/06/2019 17:29:10 -73.87, 92.01 83.68 2.30 68




NCC Satellite Simultaneous Nadir Overpasses (SNOs) Prediction Service
